Flag for Germany Weather past 2 weeks in Neustadt am Rübenberge, Lower Saxony, Germany

Now
70 °F

Scattered clouds.


Feels Like: 70 °F
Forecast: 57 / 85 °F
Wind: 15 mph from West

Location: Wunstorf Airport

Current Time: Jul 6, 2015 at 1:29:38 PM

Latest Report: Jul 6, 2015 at 12:20 PM


Visibility: N/A

Pressure: 30.12 "Hg

Humidity: 53%

Dew point: 52 °F

Location of Neustadt am RübenbergeLocation

Historic Weather in Neustadt am Rübenberge — Graph

°F

Neustadt am Rübenberge temperature yesterday

Maximum temperature yesterday: 82 °F (at 4:20 PM)
Minimum temperature yesterday: 72 °F (at 5:20 AM)
Average temperature yesterday: 75 °F

Past Weeks' High & Low Weather Summary

 TemperatureHumidityPressure
High97 °F (Jul 4, 3:20 PM)100% (Jun 22, 11:20 PM)30.27 "Hg (Jun 22, 11:20 PM)
Low48 °F (Jun 22, 11:20 PM)34% (Jun 30, 6:20 PM)29.65 "Hg (Jun 22, 9:20 PM)
Average67 °F68%30.06 "Hg
* Reported Jun 21 12:20 PM — Jul 6 12:20 PM, Neustadt am Rübenberge, Weather by CustomWeather, © 2015

Note: Actual official high and low records may vary slightly from our data, if they occured in-between our weather recording intervals... More about our weather records

Advertising

Neustadt am Rübenberge weather history for previous 24 hours

 ConditionsComfort  
Time TempWeatherWind HumidityBarometerVisibility
12:20 PM
Mon, Jul 6
70 °FScattered clouds.15 mph53%30.12 "HgN/A
11:20 AM68 °FScattered clouds.14 mph60%30.12 "HgN/A
10:20 AM66 °FScattered clouds.14 mph68%30.12 "HgN/A
9:20 AM64 °FScattered clouds.13 mph78%30.12 "HgN/A
8:20 AM63 °FScattered clouds.13 mph83%30.09 "HgN/A
7:20 AM61 °FPassing clouds.9 mph88%30.09 "HgN/A
4:20 AM72 °FMild.24 mph83%30.07 "Hg3 mi
3:20 AM72 °FMild.24 mph83%30.07 "Hg3 mi
2:20 AM72 °FMild.24 mph83%30.04 "Hg3 mi
1:20 AM72 °FMild.24 mph83%30.01 "Hg3 mi
12:20 AM72 °FMild.24 mph83%29.98 "Hg2 mi
11:20 PM
Sun, Jul 5
72 °FMild.24 mph83%29.95 "Hg2 mi
10:20 PM72 °FMild.24 mph83%29.95 "Hg3 mi
9:20 PM72 °FMild.24 mph83%29.92 "Hg3 mi
8:20 PM72 °FMild.24 mph83%29.89 "Hg3 mi
7:20 PM72 °FMild.24 mph83%29.89 "Hg3 mi
6:20 PM73 °FMild.17 mph74%29.95 "Hg2 mi
5:20 PM77 °FWarm.7 mph69%29.89 "Hg4 mi
4:20 PM82 °FWarm.7 mph55%29.95 "Hg3 mi
3:20 PM79 °FWarm.14 mph65%29.95 "Hg2 mi
2:20 PM73 °FMild.12 mph78%30.01 "Hg3 mi
1:20 PM75 °FMild.12 mph74%30.07 "Hg3 mi
Weather by CustomWeather, © 2015

See weather overviewHow to use our weather pages